Location: Carnoy
(49.9849°N, 2.7558°E)
Time: 07:02:11
(UTC+00:00)

STARLINK-1090 - Pass Details

Date: 24 January 2020
Orbit: 348 x 351 km, 53.0° (Epoch: 25 February)

Event Time Altitude Azimuth Distance (km) Brightness Sun altitude
Rises 17:14:41 0° 265° (W) 2,158 8.4 -7.5°
Maximum altitude 17:19:36 51° 349° (N) 450 3.1 -8.2°
Enters shadow 17:22:07 13° 66° (ENE) 1,180 4.6 -8.6°
